Flag for Austria Weather past 2 weeks in Waidhofen an der Ybbs, Lower Austria, Austria

Now
34 °F

Chilly.


Feels Like: 34 °F
Forecast: 25 / 40 °F
Wind: 1 mph from West

Location: Amstetten

Current Time: Mar 3, 2015 at 9:36:40 PM

Latest Report: Mar 3, 2015 at 8:00 PM


Visibility: N/A

Pressure: 30.23 "Hg

Humidity: 74%

Dew point: 27 °F

Location of Waidhofen an der YbbsLocation

Historic Weather in Waidhofen an der Ybbs — Graph

°F

Waidhofen an der Ybbs temperature yesterday

Maximum temperature yesterday: 47 °F (at 9:00 AM)
Minimum temperature yesterday: 38 °F (at 11:00 PM)
Average temperature yesterday: 42 °F

Past Weeks' High & Low Weather Summary

 TemperatureHumidityPressure
High52 °F (Feb 20, 4:00 PM)100% (Feb 23, 7:00 AM)30.79 "Hg (Feb 23, 7:00 AM)
Low24 °F (Feb 20, 6:00 AM)38% (Mar 3, 5:00 PM)29.54 "Hg (Feb 21, 5:00 PM)
Average37 °F83%30.07 "Hg
* Reported Feb 16 8:00 PM — Mar 3 8:00 PM, Waidhofen an der Ybbs, Weather by CustomWeather, © 2015

Note: Actual official high and low records may vary slightly from our data, if they occured in-between our weather recording intervals... More about our weather records

Advertising

Waidhofen an der Ybbs weather history for previous 24 hours

 ConditionsComfort  
Time TempWeatherWind HumidityBarometerVisibility
8:00 PM
Tue, Mar 3
34 °FChilly.1 mph74%30.23 "HgN/A
7:00 PM38 °FChilly.No wind62%30.23 "HgN/A
6:00 PM43 °FQuite cool.2 mph49%30.22 "HgN/A
5:00 PM48 °FCool.5 mph38%30.21 "HgN/A
4:00 PM48 °FCool.5 mph41%30.22 "HgN/A
3:00 PM46 °FCool.5 mph48%30.22 "HgN/A
2:00 PM46 °FCool.3 mph49%30.24 "HgN/A
1:00 PM44 °FQuite cool.5 mph54%30.25 "HgN/A
12:00 PM43 °FQuite cool.5 mph57%30.26 "HgN/A
11:00 AM42 °FQuite cool.5 mph57%30.26 "HgN/A
10:00 AM41 °FQuite cool.2 mph67%30.26 "HgN/A
9:00 AM38 °FChilly.1 mph70%30.26 "HgN/A
8:00 AM37 °FChilly.3 mph69%30.24 "HgN/A
7:00 AM37 °FChilly.5 mph69%30.21 "HgN/A
6:00 AM36 °FChilly.6 mph74%30.20 "HgN/A
5:00 AM37 °FChilly.8 mph72%30.17 "HgN/A
4:00 AM35 °FChilly.5 mph81%30.16 "HgN/A
3:00 AM35 °FChilly.7 mph82%30.15 "HgN/A
2:00 AM36 °FChilly.8 mph74%30.12 "HgN/A
1:00 AM40 °FChilly.7 mph75%30.05 "HgN/A
12:00 AM37 °FChilly.5 mph87%30.03 "HgN/A
11:00 PM
Mon, Mar 2
38 °FFog.2 mph89%29.98 "HgN/A
9:00 PM40 °FChilly.1 mph85%29.96 "HgN/A
Weather by CustomWeather, © 2015

See weather overviewHow to use our weather pages